TimeCST,TemperatureF,Dew PointF,Humidity,Sea Level PressureIn,VisibilityMPH,Wind Direction,Wind SpeedMPH,Gust SpeedMPH,PrecipitationIn,Events,Conditions,WindDirDegrees,DateUTC
12:10 AM,26.6,14.0,59,29.94,10.0,South,17.3,-,N/A,,Clear,180,2009-01-01 06:10:00
12:30 AM,26.6,14.0,59,29.91,10.0,South,17.3,23.0,N/A,,Clear,170,2009-01-01 06:30:00
12:50 AM,26.6,14.0,59,29.91,10.0,South,13.8,-,N/A,,Clear,180,2009-01-01 06:50:00
1:10 AM,26.6,14.0,59,29.89,10.0,South,16.1,23.0,N/A,,Clear,180,2009-01-01 07:10:00
1:30 AM,26.6,14.0,59,29.88,10.0,South,15.0,24.2,N/A,,Clear,180,2009-01-01 07:30:00
1:50 AM,26.6,14.0,59,29.87,10.0,South,19.6,26.5,N/A,,Clear,180,2009-01-01 07:50:00
2:10 AM,26.6,14.0,59,29.86,10.0,South,18.4,23.0,N/A,,Clear,180,2009-01-01 08:10:00
2:30 AM,26.6,14.0,59,29.85,10.0,South,15.0,-,N/A,,Clear,180,2009-01-01 08:30:00
2:50 AM,26.6,14.0,59,29.84,10.0,South,16.1,21.9,N/A,,Clear,180,2009-01-01 08:50:00
3:10 AM,28.4,15.8,59,29.83,10.0,South,15.0,-,N/A,,Clear,190,2009-01-01 09:10:00
3:30 AM,28.4,15.8,59,29.82,10.0,South,17.3,21.9,N/A,,Clear,190,2009-01-01 09:30:00
3:50 AM,28.4,15.8,59,29.80,10.0,South,15.0,-,N/A,,Clear,190,2009-01-01 09:50:00
4:10 AM,28.4,15.8,59,29.80,10.0,SSW,12.7,-,N/A,,Clear,200,2009-01-01 10:10:00
4:30 AM,28.4,17.6,64,29.77,10.0,South,17.3,-,N/A,,Clear,190,2009-01-01 10:30:00
4:50 AM,28.4,17.6,64,29.77,10.0,SSW,15.0,-,N/A,,Clear,200,2009-01-01 10:50:00
5:10 AM,28.4,17.6,64,29.76,10.0,SSW,16.1,-,N/A,,Clear,200,2009-01-01 11:10:00
5:30 AM,28.4,17.6,64,29.76,10.0,SSW,12.7,-,N/A,,Clear,200,2009-01-01 11:30:00
5:50 AM,28.4,17.6,64,29.76,10.0,SSW,16.1,-,N/A,,Clear,210,2009-01-01 11:50:00
6:10 AM,28.4,17.6,64,29.76,10.0,SSW,11.5,-,N/A,,Clear,200,2009-01-01 12:10:00
6:30 AM,28.4,17.6,64,29.76,10.0,SSW,12.7,-,N/A,,Clear,210,2009-01-01 12:30:00
6:50 AM,28.4,17.6,64,29.76,10.0,SSW,10.4,-,N/A,,Clear,210,2009-01-01 12:50:00
7:10 AM,28.4,19.4,69,29.77,10.0,SW,12.7,-,N/A,,Clear,220,2009-01-01 13:10:00
7:30 AM,30.2,19.4,64,29.78,10.0,SW,11.5,-,N/A,,Clear,220,2009-01-01 13:30:00
7:50 AM,30.2,19.4,64,29.77,10.0,SW,10.4,-,N/A,,Clear,220,2009-01-01 13:50:00
8:10 AM,30.2,19.4,64,29.78,10.0,SW,9.2,-,N/A,,Clear,230,2009-01-01 14:10:00
8:30 AM,30.2,19.4,64,29.77,10.0,SSW,10.4,-,N/A,,Clear,210,2009-01-01 14:30:00
8:50 AM,30.2,19.4,64,29.78,10.0,SW,5.8,-,N/A,,Clear,230,2009-01-01 14:50:00
9:10 AM,30.2,21.2,69,29.79,10.0,WSW,5.8,-,N/A,,Clear,240,2009-01-01 15:10:00
9:30 AM,30.2,21.2,69,29.80,10.0,WSW,8.1,-,N/A,,Clear,240,2009-01-01 15:30:00
9:50 AM,32.0,21.2,64,29.81,10.0,West,9.2,-,N/A,,Clear,260,2009-01-01 15:50:00
10:10 AM,32.0,21.2,64,29.81,10.0,WSW,8.1,-,N/A,,Clear,250,2009-01-01 16:10:00
10:30 AM,32.0,21.2,64,29.81,10.0,West,9.2,-,N/A,,Clear,260,2009-01-01 16:30:00
10:50 AM,32.0,21.2,64,29.82,10.0,West,8.1,-,N/A,,Clear,260,2009-01-01 16:50:00
11:10 AM,33.8,21.2,60,29.83,10.0,West,11.5,-,N/A,,Clear,260,2009-01-01 17:10:00
11:30 AM,35.6,21.2,56,29.83,10.0,WNW,10.4,-,N/A,,Clear,290,2009-01-01 17:30:00
11:50 AM,35.6,21.2,56,29.84,10.0,WNW,11.5,-,N/A,,Clear,300,2009-01-01 17:50:00
12:10 PM,33.8,21.2,60,29.83,10.0,NW,9.2,-,N/A,,Clear,310,2009-01-01 18:10:00
12:30 PM,35.6,21.2,56,29.83,10.0,WNW,6.9,-,N/A,,Clear,300,2009-01-01 18:30:00
12:50 PM,35.6,21.2,56,29.83,10.0,NW,8.1,-,N/A,,Clear,310,2009-01-01 18:50:00
1:10 PM,35.6,21.2,56,29.83,10.0,NW,8.1,-,N/A,,Clear,320,2009-01-01 19:10:00
1:30 PM,37.4,21.2,52,29.83,10.0,WNW,6.9,-,N/A,,Clear,300,2009-01-01 19:30:00
1:50 PM,37.4,23.0,56,29.84,10.0,NW,8.1,-,N/A,,Clear,310,2009-01-01 19:50:00
2:10 PM,41.0,23.0,49,29.84,10.0,NNW,10.4,16.1,N/A,,Clear,340,2009-01-01 20:10:00
2:30 PM,42.8,21.2,42,29.84,10.0,North,12.7,-,N/A,,Clear,360,2009-01-01 20:30:00
2:50 PM,42.8,21.2,42,29.83,10.0,North,11.5,-,N/A,,Clear,350,2009-01-01 20:50:00
3:10 PM,42.8,21.2,42,29.84,10.0,North,11.5,-,N/A,,Clear,350,2009-01-01 21:10:00
3:30 PM,42.8,21.2,42,29.85,10.0,North,12.7,-,N/A,,Clear,360,2009-01-01 21:30:00
3:50 PM,42.8,21.2,42,29.85,10.0,North,9.2,-,N/A,,Clear,350,2009-01-01 21:50:00
4:10 PM,42.8,21.2,42,29.85,10.0,North,6.9,-,N/A,,Clear,360,2009-01-01 22:10:00
4:30 PM,41.0,21.2,45,29.85,10.0,NNW,4.6,-,N/A,,Clear,340,2009-01-01 22:30:00
4:45 PM,37.4,21.2,52,29.86,10.0,North,5.8,-,N/A,,Clear,360,2009-01-01 22:45:00
5:31 PM,30.2,19.4,64,29.87,10.0,North,4.6,-,N/A,,Clear,350,2009-01-01 23:31:00
5:51 PM,30.2,19.4,64,29.88,10.0,Calm,Calm,-,N/A,,Clear,0,2009-01-01 23:51:00
6:10 PM,30.2,21.2,69,29.88,10.0,NW,3.5,-,N/A,,Clear,320,2009-01-02 00:10:00
6:11 PM,30.2,19.4,64,29.88,10.0,NW,3.5,-,N/A,,Clear,320,2009-01-02 00:11:00
6:30 PM,30.2,21.2,69,29.88,10.0,Calm,Calm,-,N/A,,Clear,0,2009-01-02 00:30:00
6:50 PM,26.6,19.4,74,29.88,10.0,Calm,Calm,-,N/A,,Clear,0,2009-01-02 00:50:00
7:10 PM,28.4,21.2,74,29.89,10.0,Calm,Calm,-,N/A,,Clear,0,2009-01-02 01:10:00
7:30 PM,30.2,21.2,69,29.89,10.0,Calm,Calm,-,N/A,,Clear,0,2009-01-02 01:30:00
7:50 PM,26.6,19.4,74,29.89,10.0,Calm,Calm,-,N/A,,Clear,0,2009-01-02 01:50:00
8:10 PM,28.4,21.2,74,29.88,10.0,South,3.5,-,N/A,,Clear,170,2009-01-02 02:10:00
8:30 PM,28.4,21.2,74,29.88,10.0,Calm,Calm,-,N/A,,Clear,0,2009-01-02 02:30:00
8:50 PM,26.6,21.2,80,29.88,10.0,Calm,Calm,-,N/A,,Clear,0,2009-01-02 02:50:00
9:10 PM,28.4,21.2,74,29.88,10.0,Calm,Calm,-,N/A,,Scattered Clouds,0,2009-01-02 03:10:00
9:30 PM,26.6,21.2,80,29.88,10.0,Calm,Calm,-,N/A,,Scattered Clouds,0,2009-01-02 03:30:00
9:50 PM,28.4,23.0,80,29.88,10.0,Calm,Calm,-,N/A,,Scattered Clouds,0,2009-01-02 03:50:00
10:10 PM,28.4,23.0,80,29.89,10.0,Calm,Calm,-,N/A,,Scattered Clouds,0,2009-01-02 04:10:00
10:30 PM,28.4,23.0,80,29.88,10.0,Calm,Calm,-,N/A,,Clear,0,2009-01-02 04:30:00
10:50 PM,28.4,23.0,80,29.89,10.0,Calm,Calm,-,N/A,,Clear,0,2009-01-02 04:50:00
11:10 PM,28.4,23.0,80,29.90,10.0,Calm,Calm,-,N/A,,Clear,0,2009-01-02 05:10:00
11:30 PM,28.4,24.8,86,29.90,10.0,Calm,Calm,-,N/A,,Clear,0,2009-01-02 05:30:00
11:50 PM,28.4,23.0,80,29.89,10.0,Calm,Calm,-,N/A,,Clear,0,2009-01-02 05:50:00